Regional Weather Roundup
Issued by NWS Newport/Morehead, NC

Current Version | Previous Version | Graphics & Text | Print | Product List | Glossary On
Versions: 1 2 3 4 5 6 7 8 9 10 11 12 13 14 15 16 17 18 19 20 21 22 23 24 25 26 27 28 29 30 31 32 33 34 35 36 37 38 39 40 41 42 43 44 45 46 47 48 49 50
000 ASUS42 KMHX 281625 RWRMHX WEATHER ROUNDUP FOR EASTERN NORTH CAROLINA NATIONAL WEATHER SERVICE NEWPORT/MOREHEAD CITY NC 1200 PM EDT TUE MAR 28 2017 NOTE: "FAIR" INDICATES FEW OR NO CLOUDS BELOW 12,000 FEET WITH NO SIGNIFICANT WEATHER AND/OR OBSTRUCTIONS TO VISIBILITY NCZ015>017-031-032-045>047-102-103-281700- NORTH COAST CITY SKY/WX TMP DP RH WIND PRES REMARKS EDENTON CLOUDY 70 59 68 W9 29.97S ELIZABETH CITY CLOUDY 70 60 70 SW9 29.95S KITTY HAWK NOT AVBL MANTEO PTSUNNY 71 58 62 W13G18 29.97S $$ NCZ045>047-081-094-103-104-281700- CENTRAL COAST CITY SKY/WX TMP DP RH WIND PRES REMARKS FRISCO PTSUNNY 72 61 68 SW8 30.00S HAZE $$ NCZ095-097-098-100-101-281700- SOUTHERN COAST CITY SKY/WX TMP DP RH WIND PRES REMARKS BEAUFORT CLOUDY 70 62 76 SW10 30.00F CEDAR ISLAND NOT AVBL JACKSONVILLE TSTM 65 62 90 S9 29.97F FOG PINEY ISLAND CLOUDY N/A N/A N/A W15G24 29.98F WILMINGTON CLOUDY 69 63 81 S3 29.99F $$ NCZ011>013-027>030-043-044-078>080-089-090>093-098-281700- COASTAL PLAIN CITY SKY/WX TMP DP RH WIND PRES REMARKS AHOSKIE LGT RAIN 64 60 90 S3 29.95F CLINTON CLOUDY 67 64 89 SW6 29.97F ELIZABETHTOWN MOSUNNY 70 62 77 SW8 29.96F GOLDSBORO CLOUDY 64 64 100 S8 29.95F GREENVILLE DRIZZLE 64 63 94 SW15 29.97F HAVELOCK PTSUNNY 71 58 63 W16 30.00F KENANSVILLE CLOUDY 63 61 94 S3 29.97F KINSTON LGT RAIN 64 63 94 S10G16 29.97F NEW BERN LGT RAIN 67 60 78 SW7 30.00F RICHLANDS LGT RAIN 64 63 94 CALM 29.98F ROCKY MOUNT LGT RAIN 65 62 90 S10 29.95S WASHINGTON RAIN 64 60 88 S6 29.97F WHITEVILLE MOSUNNY 74 60 63 S8 29.96F $$ AMZ130-135-150-152-154-156-158-170-250-252-270-ANZ085-086-088-633-658-670-281700- MARINE OBSERVATIONS STATION/POSITION TIME TEMP WIND PRES WAVE SWELL AIR SEA DIR/SP/G HT/PER HT/PER (UTC) (F) (DEG/KT/KT) (MB) (FT/S) (FT/S) CHESAPEAKE LIGHT NOT AVBL 64 E VA BEACH 1450 56 50 210/ 14/ 16 1014.3 4/ 9 3/ 9 DUCK 1600 69 47 220/ 11/ 15 1013.8 2 E DUCK 1500 50 N/A 3/10 2/11 OREGON INLET 1600 63 60 200/ 15/ 17 1014.8 13E OREGON INLT 1518 53 N/A 4/10 5/10 HATTERAS CG 1600 70 61 220/ 9/ 13 1015.4 DIAMOND BUOY 1450 72 74 240/ 17/ 19 1015.7 5/10 3/10 CAPE LOOKOUT 1600 68 250/ 12/ 16 1015.7 BEAUFORT LAB 1600 68 60 230/ 3/ 9 1015.1 30 SE NEW RVR IN 1508 66 260/ 12/ 14 1016.6 30 SE NEW RVR IN 1513 64 N/A 5/10 3/11 27 SE WRIGHTSVLE 1508 68 66 220/ 16/ 21 1015.8 5 SE WRIGHTSVLE 1508 63 60 220/ 10/ 14 1016.0 225 S CAPE HAT 1450 69 73 310/ 2/ 4 1018.6 6/10 7/10 41 SE CHARLESTON 1450 71 72 230/ 16/ 17 1016.4 5/11 5/11 $$

USA.gov is the U.S. government's official web portal to all federal, state and local government web resources and services.